Regional Weather Roundup
Issued by NWS

Home | Current Version | Previous Version | Graphics & Text | Print | Product List | Glossary Off
Versions: 1 2 3 4 5 6 7 8 9 10 11 12 13 14 15 16 17 18 19 20 21 22 23 24 25 26 27 28 29 30 31 32 33 34 35 36 37 38 39 40 41 42 43 44 45 46 47 48 49 50

000
ASUS43 KMPX 222101
RWRMN
WEATHER ROUNDUP FOR MINNESOTA
NATIONAL WEATHER SERVICE TWIN CITIES/CHANHASSEN MN
400 PM CDT MON MAY 22 2017


NOTE: "FAIR" INDICATES FEW OR NO CLOUDS BELOW 12,000 FEET WITH NO
SIGNIFICANT WEATHER AND/OR OBSTRUCTIONS TO VISIBILITY. N/A MEANS
CURRENT SKY AND/OR WEATHER CONDITIONS ARE NOT AVAILABLE.

MNZ060>063-068>070-222200-
   Twin Cities Metro

CITY           SKY/WX    TMP DP  RH WIND       PRES   REMARKS
TWIN CITIES    MOSUNNY   66  42  41 NW13G20   29.82S
ST PAUL        SUNNY     65  43  44 W8        29.82S
CRYSTAL        MOSUNNY   64  40  41 W18G25    29.81S
BLAINE         PTSUNNY   64  43  45 W9G20     29.82S
LAKEVILLE      MOSUNNY   64  46  52 W12G17    29.82F
EDEN PRAIRIE   MOSUNNY   67  44  43 W9        29.81S
SOUTH ST PAUL  MOSUNNY   65  41  41 NW13      29.81F
LAKE ELMO      FAIR      64  45  48 W10       29.83S
$$
MNZ001>005-007-008-013>017-022>024-027-028-222200-
   Northwest Minnesota

CITY           SKY/WX    TMP DP  RH WIND       PRES   REMARKS
BEMIDJI        CLOUDY    50  41  70 NW14      29.81R
HALLOCK        CLOUDY    50  46  87 N13       29.86R
ROSEAU         CLOUDY    50  45  81 NW10      29.82S
WARROAD        RAIN      48  45  87 NW7       29.83R
THIEF RVR FALL LGT RAIN  48  43  81 N14       29.86R
CROOKSTON      CLOUDY    52  45  76 N16       29.87R
FOSSTON        LGT RAIN  46  45  93 NW13      29.85R
DETROIT LAKES  PTSUNNY   52  43  71 NW15      29.85S
MOORHEAD       CLOUDY    54  43  66 NW21      29.88R
PARK RAPIDS    CLOUDY    53  40  61 NW8       29.82R
MAHNOMEN       CLOUDY    49  44  84 NW16G23   29.85R
$$
MNZ006-009>011-018-025>026-222200-
   North Central Minnesota

CITY           SKY/WX    TMP DP  RH WIND       PRES   REMARKS
BAUDETTE       LGT RAIN  48  44  86 N12       29.81R
FLAG ISLAND    DRIZZLE   48  45  87 N14       29.81R
INTL FALLS     LGT RAIN  49  43  80 NW10      29.79R
WASKISH        LGT RAIN  46  45  93 CALM      29.82R
BIG FORK       CLOUDY    50  46  87 N5        29.79R
LONGVILLE      DRIZZLE   48  45  87 NW3       29.82R
GRAND RAPIDS   CLOUDY    52  42  69 W9        29.81R
CRANE LAKE     CLOUDY    48  45  87 N9        29.79R
ORR            LGT RAIN  48  43  81 NW5       29.76R
COOK           CLOUDY    54  43  66 W16       29.78R
WALKER         CLOUDY    52  42  69 NW8       29.81S
$$
MNZ012-019>021-037-222200-
   Northeast Minnesota

CITY           SKY/WX    TMP DP  RH WIND       PRES   REMARKS
DULUTH         CLOUDY    53  45  74 W14       29.79R
ELY            PTSUNNY   52  39  62 W15       29.76R
HIBBING        HVY RAIN  49  45  86 NW10      29.78R FOG
EVELETH        PTSUNNY   52  45  76 W6        29.78S
DULUTH HARBOR  CLOUDY    54  46  76 W10       29.80S
TWO HARBORS    PTSUNNY   57  46  67 W8        29.76S
SILVER BAY     PTSUNNY   55  45  67 W6        29.76S
GRAND MARAIS     N/A     42  39  89 W7        29.75R
G MARAIS ARPRT CLOUDY    52  39  62 SW8       29.75R
$$
MNZ029>031-032-039>041-046>048-054>057-064-222200-
   West Central Minnesota

CITY           SKY/WX    TMP DP  RH WIND       PRES   REMARKS
FERGUS FALLS   CLOUDY    55  43  62 N12G18    29.85R
WHEATON        MOSUNNY   61  39  44 NW12G17   29.87S
MORRIS         PTSUNNY   59  45  58 N15       29.85R
ALEXANDRIA     CLOUDY    57  42  57 NW14G22   29.85S
ELBOW LAKE     CLOUDY    54  43  66 W10       29.86S
WADENA         CLOUDY    54  43  66 NW15      29.83R
GLENWOOD       MOSUNNY   57  45  62 NW13      29.85S
APPLETON       PTSUNNY   64  41  42 NW9G18    29.85S
BENSON         PTSUNNY   63  43  48 N12       29.86S
ORTONVILLE     PTSUNNY   63  41  45 NW16      29.86S
MADISON        MOSUNNY   64  46  52 NW10      29.86F
WILLMAR        FAIR      63  45  51 W14       29.86F
$$
MNZ033>034-036-042>043-049>051-058-059-222200-
   Central Minnesota

CITY           SKY/WX    TMP DP  RH WIND       PRES   REMARKS
ST CLOUD       PTSUNNY   60  44  55 W14G20    29.82S
SAUK CENTRE    MOCLDY    59  44  56 W16       29.84S
PAYNESVILLE    MOSUNNY   59  42  52 NW10      29.84F
AITKIN         CLOUDY    54  43  66 W5        29.80R
PINE RIVER     CLOUDY    52  43  71 NW9       29.86R
BRAINERD       CLOUDY    55  42  61 NW15      29.82R
STAPLES        CLOUDY    55  41  58 W14       29.83S
LONG PRAIRIE   CLOUDY    54  41  62 W8        29.84S
LITTLE FALLS   CLOUDY    55  41  58 W12       29.83S
LITCHFIELD     MOSUNNY   63  46  55 NW9G16    29.84S
BUFFALO        MOSUNNY   62  42  48 W14       29.84S
MAPLE LAKE     SUNNY     63  45  50 NW15      29.85S
HUTCHINSON     CLOUDY    64  48  57 W12       29.85S
$$
MNZ037-044-045-052-053-222200-
   East Central Minnesota

CITY           SKY/WX    TMP DP  RH WIND       PRES   REMARKS
PRINCETON      MOSUNNY   63  45  51 W10G16    29.83R
MORA           CLOUDY    54  41  62 W5        29.83R
CAMBRIDGE      MOSUNNY   63  45  51 W8        29.81S
RUSH CITY      PTSUNNY   61  44  54 W7        29.82S
MOOSE LAKE     CLOUDY    54  41  62 W7G18     29.79S
HINCKLEY       CLOUDY    55  45  67 CALM      29.81S
CLOQUET        CLOUDY    52  43  71 W3        29.80S
MCGREGOR       CLOUDY    55  43  62 NW7       29.80S
$$
MNZ071>073-080-081-089-090-097-098-222200-
   Southwest Minnesota

CITY           SKY/WX    TMP DP  RH WIND       PRES   REMARKS
MONTEVIDEO     SUNNY     64  43  45 N8G16     29.85F
CANBY          CLOUDY    61  43  51 N9        29.87S
MARSHALL       LGT RAIN  58  49  72 NW5       29.86S
REDWOOD FALLS  PTSUNNY   64  45  49 NW9       29.84S
OLIVIA         SUNNY     63  45  51 NW8G16    29.84F
PIPESTONE      LGT RAIN  57  46  67 NW10      29.85S
WINDOM         MOSUNNY   64  45  48 N8        29.84S
WORTHINGTON    CLOUDY    63  49  60 N12       29.83F
JACKSON        CLOUDY    64  45  48 CALM      29.84S
TRACY          CLOUDY    62  49  63 N10       29.85S
SLAYTON        CLOUDY    58  49  72 NE6       29.85S
$$
MNZ065>067-074>077-082>085-091>093-222200-
   South Central Minnesota

CITY           SKY/WX    TMP DP  RH WIND       PRES   REMARKS
MANKATO        MOSUNNY   63  46  54 W9        29.85S
NEW ULM        PTSUNNY   63  45  51 NW8       29.84F
ST JAMES       MOSUNNY   64  46  52 N3        29.85S
FAIRMONT       PTSUNNY   67  45  45 N5        29.84F
GLENCOE        PTSUNNY   64  52  63 NW10      29.83S
FARIBAULT      MOSUNNY   66  46  48 W8G16     29.84S
OWATONNA       MOSUNNY   66  45  45 NW8       29.84S
WASECA         PTSUNNY   63  46  55 NW9       29.86S
ALBERT LEA     MOSUNNY   68  45  42 W6        29.84S
$$
MNZ078>079-086>088-094>096-222200-
   Southeast Minnesota

CITY           SKY/WX    TMP DP  RH WIND       PRES   REMARKS
ROCHESTER      MOSUNNY   67  49  52 W6        29.84S
RED WING       SUNNY     68  39  34 W9G16     29.81S
STANTON        MOSUNNY   65  47  51 W12       29.82S
DODGE CENTER   MOSUNNY   64  43  45 W6        29.84S
WINONA         MOSUNNY   68  45  42 CALM      29.82S
AUSTIN         MOSUNNY   66  45  45 CALM      29.83F
PRESTON        SUNNY     66  46  47 SW3       29.84F
$$
ABBREVIATIONS USED IN REMARKS
   TC - TEMPERATURES IN CELSIUS
  WCI - WIND CHILL INDEX
   HX - HEAT INDEX
  VSB - VISIBILITY
$$




USA.gov is the U.S. government's official web portal to all federal, state and local government web resources and services.